Total_Precipitation_Accumulation
1.87 2.10 1.81 1.28 1.06 0.92 0.81 0.70 0.62 0.44 0.37 0.50 0.46 0.32 0.24 0.27 0.33 0.38 0.40 0.47 0.52 0.54 0.56 0.64 0.76 0.93 1.11 1.25 1.39 1.60 1.98 2.18 2.43 2.52 2.47 2.39 2.44 2.45 2.46 2.46 2.42 2.29 2.17 2.03
1.92 1.58 0.91 0.69 0.73 0.86 0.93 0.89 0.66 0.50 0.41 0.53 0.48 0.33 0.24 0.25 0.32 0.35 0.39 0.46 0.51 0.56 0.64 0.69 0.84 1.02 1.09 1.15 1.28 1.46 1.77 2.01 2.17 2.20 2.19 2.16 2.16 2.25 2.32 2.36 2.44 2.52 2.44 2.28
1.37 0.92 0.60 0.77 0.91 1.08 1.03 0.87 0.68 0.63 0.61 0.67 0.65 0.56 0.32 0.29 0.31 0.33 0.39 0.44 0.47 0.53 0.59 0.61 0.75 1.01 1.14 1.13 1.22 1.35 1.58 1.80 2.05 2.27 2.40 2.43 2.52 2.48 2.37 2.32 2.34 2.43 2.46 2.37
0.98 0.63 0.69 0.93 0.96 1.02 1.07 0.66 0.64 0.71 1.01 1.19 0.95 1.06 0.49 0.33 0.35 0.33 0.38 0.47 0.46 0.51 0.57 0.58 0.67 0.91 1.10 1.11 1.26 1.42 1.60 1.84 2.00 2.26 2.39 2.27 2.24 2.29 2.11 2.04 2.08 2.26 2.44 2.44
1.07 0.70 0.79 0.95 0.79 0.77 0.78 0.62 0.75 0.90 1.18 1.36 1.01 1.11 0.61 0.36 0.45 0.41 0.41 0.51 0.48 0.50 0.56 0.56 0.62 0.82 1.04 1.15 1.27 1.49 1.64 1.86 2.04 2.17 2.25 2.20 2.09 2.03 2.10 2.20 2.19 2.17 2.27 2.45
0.83 0.67 0.78 0.71 0.59 0.67 0.77 0.99 1.27 1.44 1.97 2.14 0.95 0.89 0.71 0.55 0.59 0.51 0.48 0.54 0.53 0.53 0.58 0.63 0.67 0.81 0.97 1.13 1.28 1.44 1.69 1.86 2.08 2.20 2.18 2.03 1.93 1.90 1.95 2.03 2.20 2.25 2.24 2.33
1.18 0.88 0.83 0.74 0.94 1.09 1.28 1.93 2.96 3.27 3.22 1.93 0.57 0.61 0.73 0.59 0.55 0.56 0.57 0.57 0.57 0.59 0.64 0.66 0.69 0.78 0.86 1.01 1.19 1.34 1.55 1.84 2.05 2.20 2.15 1.95 1.82 1.80 1.83 1.89 1.99 2.07 2.14 2.19
1.37 1.21 0.87 0.87 1.13 1.40 1.36 1.57 2.14 2.25 1.66 0.84 0.47 0.57 0.61 0.53 0.46 0.47 0.50 0.54 0.50 0.58 0.69 0.69 0.67 0.75 0.84 0.96 1.12 1.30 1.45 1.71 1.96 2.11 2.11 2.00 1.78 1.72 1.77 1.84 1.87 1.90 1.83 1.85
1.38 1.08 0.68 0.65 0.69 0.91 1.30 1.33 1.11 1.49 1.08 0.72 0.63 0.52 0.44 0.38 0.36 0.41 0.47 0.56 0.57 0.61 0.71 0.75 0.73 0.79 0.84 0.95 1.09 1.27 1.42 1.60 1.85 2.07 2.09 2.06 1.89 1.77 1.74 1.80 1.83 1.90 1.86 1.78
1.55 1.31 0.77 0.73 0.84 1.02 1.14 1.25 1.49 2.05 1.72 1.00 0.60 0.46 0.53 0.46 0.42 0.42 0.48 0.60 0.62 0.62 0.69 0.76 0.77 0.82 0.88 1.00 1.12 1.26 1.41 1.53 1.71 1.92 2.04 2.05 2.06 1.90 1.84 1.85 1.83 1.82 1.88 1.88
1.46 1.56 1.14 1.07 1.28 1.28 1.24 1.55 1.85 1.88 1.49 1.25 0.84 0.62 0.57 0.48 0.43 0.43 0.45 0.56 0.63 0.66 0.71 0.80 0.85 0.85 0.89 1.04 1.16 1.23 1.33 1.51 1.68 1.77 1.85 1.94 2.09 1.98 1.91 1.91 1.87 1.79 1.78 1.89
1.46 1.78 1.42 1.04 0.86 0.81 1.05 1.31 1.55 1.92 1.48 0.97 0.93 0.73 0.48 0.39 0.37 0.37 0.40 0.50 0.59 0.63 0.71 0.74 0.79 0.84 0.85 0.97 1.15 1.25 1.32 1.38 1.58 1.74 1.79 1.86 2.00 2.07 1.98 1.94 1.89 1.77 1.69 1.73
1.93 2.34 2.09 1.72 1.43 1.19 1.27 1.19 1.26 1.45 1.50 1.13 0.97 0.71 0.45 0.38 0.36 0.35 0.36 0.43 0.55 0.63 0.70 0.72 0.73 0.77 0.84 0.92 1.05 1.18 1.26 1.30 1.43 1.66 1.70 1.81 1.92 1.98 1.97 1.93 1.94 1.88 1.81 1.82
2.32 2.37 1.71 1.57 1.40 1.29 1.25 1.00 1.01 1.48 1.82 1.18 0.77 0.61 0.49 0.47 0.47 0.45 0.42 0.43 0.54 0.64 0.69 0.69 0.72 0.76 0.84 0.93 1.01 1.07 1.14 1.25 1.37 1.60 1.72 1.73 1.81 1.86 1.89 1.92 1.89 1.96 2.02 2.06
2.19 2.08 0.94 0.59 0.53 0.66 0.78 0.72 0.76 1.02 1.06 0.97 0.62 0.54 0.62 0.61 0.60 0.57 0.55 0.53 0.55 0.68 0.71 0.71 0.75 0.78 0.84 0.95 1.03 1.02 1.08 1.16 1.29 1.49 1.63 1.69 1.72 1.86 1.99 2.04 2.06 2.03 2.13 2.20
1.96 1.88 0.95 0.59 0.40 0.47 0.60 0.50 0.54 0.59 0.59 0.64 0.52 0.58 0.61 0.59 0.54 0.53 0.54 0.55 0.59 0.69 0.73 0.75 0.76 0.81 0.86 0.92 1.00 1.00 1.01 1.11 1.22 1.38 1.48 1.56 1.70 1.82 2.00 2.09 2.17 2.18 2.19 2.25
1.71 1.67 1.45 0.96 0.48 0.74 0.90 0.61 0.54 0.55 0.55 0.58 0.66 0.67 0.60 0.58 0.57 0.58 0.58 0.58 0.60 0.62 0.66 0.71 0.79 0.84 0.86 0.88 0.92 0.97 0.98 1.02 1.11 1.26 1.36 1.45 1.61 1.70 1.81 1.89 1.95 2.00 1.97 1.97
1.40 1.53 1.86 1.38 1.01 1.39 0.80 0.49 0.47 0.50 0.56 0.58 0.61 0.61 0.61 0.66 0.66 0.61 0.60 0.62 0.62 0.60 0.60 0.62 0.74 0.80 0.79 0.81 0.88 0.92 0.93 0.95 1.04 1.15 1.25 1.29 1.44 1.58 1.62 1.68 1.73 1.76 1.72 1.75
0.92 1.50 2.14 1.79 1.33 0.81 0.44 0.38 0.53 0.62 0.69 0.61 0.57 0.55 0.54 0.57 0.59 0.63 0.61 0.59 0.62 0.61 0.58 0.61 0.69 0.74 0.75 0.80 0.86 0.85 0.86 0.87 0.95 1.05 1.11 1.13 1.22 1.42 1.46 1.53 1.61 1.60 1.64 1.65
0.96 1.49 2.27 1.92 1.48 0.80 0.45 0.30 0.36 0.54 0.79 0.56 0.50 0.54 0.56 0.58 0.78 0.76 0.68 0.65 0.64 0.59 0.58 0.63 0.68 0.66 0.70 0.77 0.78 0.77 0.78 0.82 0.90 0.95 1.03 1.05 1.08 1.22 1.27 1.32 1.40 1.43 1.46 1.53
1.35 1.93 2.13 1.58 1.27 0.61 0.38 0.31 0.35 0.82 0.97 0.54 0.51 0.57 0.61 0.72 0.84 0.77 0.70 0.68 0.66 0.65 0.64 0.63 0.64 0.67 0.71 0.76 0.77 0.78 0.76 0.78 0.83 0.86 0.91 0.96 1.02 1.11 1.15 1.19 1.24 1.31 1.38 1.44
0.90 1.24 1.25 1.18 1.33 0.74 0.38 0.39 0.68 0.85 0.53 0.47 0.50 0.53 0.58 0.58 0.56 0.58 0.62 0.63 0.62 0.64 0.64 0.63 0.66 0.70 0.72 0.72 0.72 0.71 0.77 0.77 0.78 0.84 0.90 0.94 0.99 1.02 1.05 1.10 1.17 1.19 1.30 1.44
0.65 0.83 0.90 0.88 0.82 0.60 0.48 0.57 0.61 0.50 0.45 0.42 0.45 0.49 0.52 0.54 0.54 0.57 0.59 0.60 0.60 0.62 0.62 0.63 0.67 0.71 0.70 0.71 0.70 0.70 0.74 0.75 0.77 0.81 0.87 0.94 1.00 1.01 1.06 1.10 1.16 1.22 1.32 1.46
0.54 0.50 0.63 0.60 0.48 0.42 0.42 0.42 0.43 0.42 0.43 0.42 0.43 0.48 0.49 0.54 0.54 0.57 0.57 0.59 0.60 0.58 0.58 0.57 0.62 0.68 0.70 0.72 0.72 0.72 0.74 0.76 0.79 0.82 0.83 0.88 0.99 1.06 1.06 1.10 1.16 1.20 1.27 1.43
0.47 0.48 0.58 0.53 0.38 0.34 0.33 0.33 0.38 0.40 0.38 0.37 0.39 0.43 0.46 0.47 0.49 0.52 0.56 0.58 0.59 0.59 0.58 0.56 0.59 0.67 0.72 0.72 0.73 0.75 0.79 0.83 0.85 0.83 0.82 0.85 0.95 1.02 1.06 1.10 1.16 1.21 1.21 1.44
0.38 0.47 0.59 0.53 0.37 0.41 0.36 0.31 0.32 0.36 0.37 0.35 0.37 0.40 0.39 0.41 0.46 0.48 0.51 0.54 0.55 0.57 0.58 0.58 0.58 0.65 0.70 0.73 0.75 0.80 0.87 0.90 0.91 0.89 0.88 0.89 0.96 0.99 1.01 1.06 1.14 1.24 1.26 1.35